Weather History for KXSA - September, 2013

Change the Weather History Date:

Saturday, September 21, 2013

  Actual Average (KRIC) Record (KRIC)
Temperature  
Mean Temperature 68 °F 69 °F  
Max Temperature 80 °F 79 °F 94 °F (1980)
Min Temperature 57 °F 58 °F 39 °F (1956)
Degree Days  
Heating Degree Days 0 1  
Month to date heating degree days 8  
Since 1 July heating degree days 9  
Cooling Degree Days 4 5  
Month to date cooling degree days 163  
Year to date cooling degree days 1470  
Growing Degree Days 18 (Base 50)    
Moisture  
Dew Point 61 °F    
Average Humidity 83    
Maximum Humidity 99    
Minimum Humidity 48    
Precipitation  
Precipitation 0.00 in 0.13 in 1.70 in (1966)
Month to date precipitation 2.99  
Year to date precipitation 32.98  
Snow  
Snow 0.00 in 0.00 in 0.00 in (2002)
Month to date snowfall 0.0  
Since 1 July snowfall 0.0  
Snow Depth -    
Sea Level Pressure  
Sea Level Pressure 29.85 in    
Wind  
Wind Speed 3 mph (South)    
Max Wind Speed 20 mph    
Max Gust Speed 25 mph    
Visibility 9 miles    
Events Rain    
T = Trace of Precipitation, MM = Missing Value Source: NWS Daily Summary

Daily Weather History Graph

Daily Weather History Graph

Search for Another Location

Airport or City:

Trip Planner

Search our weather history database for the weather conditions in past years. The results will help you decide how hot, cold, wet, or windy it might be!

Date:

Astronomy

Sep. 21, 2013 Rise Set
Actual Time 6:54 AM EDT 7:05 PM EDT
Civil Twilight 6:28 AM EDT 7:31 PM EDT
Nautical Twilight 5:57 AM EDT 8:02 PM EDT
Astronomical Twilight 5:26 AM EDT 8:33 PM EDT
Moon 8:18 PM EDT (9/21) 9:07 AM EDT (9/21)
Length of Visible Light 13h 03m
Length of Day
12h 11m
Waning Gibbous, 94% of the Moon is Illuminated
Sep 21
Waning Gibbous
Sep 26
Last Quarter
Oct 4
New
Oct 11
First Quarter
Oct 18
Full

Hourly Weather History & Observations

Time (EDT) Temp. Heat Index Dew Point Humidity Pressure Visibility Wind Dir Wind Speed Gust Speed Precip Events Conditions
12:15 AM 60.6 °F - 58.3 °F 92% 29.99 in 10.0 mi Calm Calm - N/A   Scattered Clouds
12:35 AM 59.9 °F - 57.6 °F 92% 29.99 in 10.0 mi Calm Calm - N/A   Scattered Clouds
12:55 AM 58.8 °F - 57.4 °F 95% 29.99 in 10.0 mi Calm Calm - N/A   Clear
1:15 AM 58.6 °F - 57.6 °F 96% 29.99 in 10.0 mi South 3.5 mph - N/A   Clear
1:35 AM 58.8 °F - 57.7 °F 96% 29.98 in 10.0 mi Calm Calm - N/A   Scattered Clouds
1:55 AM 60.1 °F - 58.5 °F 94% 29.98 in 10.0 mi South 3.5 mph - N/A   Overcast
2:15 AM 60.1 °F - 58.3 °F 94% 29.97 in 10.0 mi SSE 3.5 mph - N/A   Mostly Cloudy
2:35 AM 59.9 °F - 57.2 °F 91% 29.97 in 10.0 mi South 4.6 mph - N/A   Scattered Clouds
2:55 AM 59.0 °F - 56.8 °F 93% 29.97 in 10.0 mi Calm Calm - N/A   Scattered Clouds
3:15 AM 60.3 °F - 58.1 °F 93% 29.96 in 10.0 mi Calm Calm - N/A   Mostly Cloudy
3:35 AM 59.2 °F - 57.4 °F 94% 29.96 in 10.0 mi Calm Calm - N/A   Scattered Clouds
3:55 AM 59.0 °F - 57.4 °F 94% 29.96 in 10.0 mi South 3.5 mph - N/A   Clear
4:15 AM 58.6 °F - 57.2 °F 95% 29.96 in 10.0 mi Calm Calm - N/A   Clear
4:35 AM 59.0 °F - 57.2 °F 94% 29.95 in 10.0 mi Calm Calm - N/A   Scattered Clouds
4:55 AM 59.5 °F - 57.6 °F 93% 29.95 in 10.0 mi Calm Calm - N/A   Mostly Cloudy
5:15 AM 59.2 °F - 57.0 °F 93% 29.95 in 10.0 mi Calm Calm - N/A   Mostly Cloudy
5:35 AM 58.6 °F - 57.0 °F 94% 29.94 in 10.0 mi Calm Calm - N/A   Scattered Clouds
5:55 AM 57.2 °F - 56.3 °F 97% 29.93 in 10.0 mi Calm Calm - N/A   Clear
6:15 AM 57.4 °F - 56.7 °F 97% 29.93 in 10.0 mi SSE 3.5 mph - N/A   Clear
6:35 AM 57.4 °F - 56.5 °F 97% 29.93 in 10.0 mi Calm Calm - N/A   Clear
6:55 AM 57.6 °F - 56.7 °F 97% 29.93 in 10.0 mi Calm Calm - N/A   Clear
7:15 AM 57.2 °F - 56.3 °F 97% 29.93 in 10.0 mi Calm Calm - N/A   Clear
7:35 AM 58.3 °F - 57.4 °F 97% 29.93 in 10.0 mi Calm Calm - N/A   Clear
7:55 AM 59.9 °F - 58.1 °F 94% 29.92 in 10.0 mi Calm Calm - N/A   Clear
8:15 AM 62.2 °F - 59.2 °F 90% 29.92 in 10.0 mi SSE 3.5 mph - N/A   Scattered Clouds
8:35 AM 64.6 °F - 60.4 °F 86% 29.92 in 10.0 mi SSE 3.5 mph - N/A   Overcast
8:55 AM 65.3 °F - 61.0 °F 86% 29.92 in 10.0 mi Calm Calm - N/A   Overcast
9:15 AM 67.3 °F - 61.7 °F 82% 29.92 in 10.0 mi SSE 3.5 mph - N/A   Overcast
9:35 AM 70.3 °F - 61.9 °F 74% 29.91 in 10.0 mi SSE 5.8 mph - N/A   Mostly Cloudy
9:55 AM 71.8 °F - 59.5 °F 65% 29.90 in 10.0 mi SSE 8.1 mph - N/A   Mostly Cloudy
10:15 AM 74.3 °F - 59.7 °F 60% 29.90 in 10.0 mi SSE 6.9 mph - N/A   Scattered Clouds
10:35 AM 75.9 °F - 59.7 °F 57% 29.89 in 10.0 mi SSE 11.5 mph - N/A   Mostly Cloudy
10:55 AM 76.1 °F - 59.7 °F 57% 29.89 in 10.0 mi SSE 11.5 mph - N/A   Overcast
11:15 AM 75.9 °F - 59.0 °F 56% 29.88 in 10.0 mi SSE 9.2 mph - N/A   Overcast
11:35 AM 77.0 °F - 59.0 °F 54% 29.87 in 10.0 mi South 8.1 mph - N/A   Mostly Cloudy
11:55 AM 79.3 °F - 58.8 °F 49% 29.86 in 10.0 mi SSE 10.4 mph 16.1 mph N/A   Scattered Clouds
12:15 PM 80.4 °F 81.0 °F 59.0 °F 48% 29.85 in 10.0 mi SSE 8.1 mph - N/A   Scattered Clouds
12:35 PM 78.4 °F - 59.9 °F 53% 29.84 in 10.0 mi SSE 8.1 mph - N/A   Scattered Clouds
12:55 PM 77.0 °F - 59.2 °F 54% 29.83 in 10.0 mi South 6.9 mph - N/A   Mostly Cloudy
1:15 PM 76.6 °F - 59.0 °F 54% 29.82 in 10.0 mi South 5.8 mph - N/A   Mostly Cloudy
1:35 PM 79.0 °F - 59.0 °F 50% 29.82 in 10.0 mi SSE 11.5 mph - N/A   Scattered Clouds
1:55 PM 77.4 °F - 59.0 °F 53% 29.81 in 10.0 mi South 10.4 mph - N/A   Scattered Clouds
2:15 PM 77.9 °F - 58.8 °F 52% 29.80 in 10.0 mi South 9.2 mph - N/A   Scattered Clouds
2:35 PM 77.0 °F - 58.8 °F 53% 29.79 in 10.0 mi South 11.5 mph 17.3 mph N/A   Mostly Cloudy
2:55 PM 76.8 °F - 59.2 °F 54% 29.78 in 10.0 mi South 5.8 mph - N/A   Scattered Clouds
3:15 PM 75.6 °F - 60.6 °F 60% 29.78 in 10.0 mi South 6.9 mph - N/A   Mostly Cloudy
3:35 PM 75.6 °F - 61.2 °F 61% 29.77 in 10.0 mi South 6.9 mph - N/A   Mostly Cloudy
3:55 PM 75.0 °F - 61.3 °F 62% 29.76 in 10.0 mi South 8.1 mph - N/A   Mostly Cloudy
4:15 PM 74.7 °F - 61.7 °F 64% 29.76 in 10.0 mi South 8.1 mph - N/A   Mostly Cloudy
4:35 PM 69.8 °F - 65.1 °F 85% 29.75 in 5.0 mi South 3.5 mph - N/A Rain Light Rain
4:55 PM 69.4 °F - 67.1 °F 92% 29.75 in 10.0 mi Calm Calm - N/A   Mostly Cloudy
5:15 PM 69.8 °F - 67.8 °F 93% 29.75 in 10.0 mi Calm Calm - N/A Rain Light Rain
5:35 PM 69.8 °F - 67.6 °F 93% 29.75 in 10.0 mi Calm Calm - N/A Rain Light Rain
5:55 PM 69.8 °F - 67.5 °F 92% 29.74 in 10.0 mi Calm Calm - N/A Rain Rain
6:15 PM 69.4 °F - 67.6 °F 94% 29.74 in 10.0 mi Calm Calm - N/A   Drizzle
6:35 PM 69.1 °F - 67.8 °F 96% 29.73 in 10.0 mi Calm Calm - N/A Rain Rain
6:55 PM 68.9 °F - 67.6 °F 96% 29.73 in 10.0 mi Calm Calm - N/A   Drizzle
7:15 PM 68.9 °F - 68.0 °F 97% 29.73 in 10.0 mi SSE 3.5 mph - N/A   Drizzle
7:35 PM 68.9 °F - 68.0 °F 97% 29.73 in 10.0 mi SSE 4.6 mph - N/A   Drizzle
7:55 PM 68.9 °F - 68.0 °F 97% 29.73 in 10.0 mi SSE 3.5 mph - N/A   Drizzle
8:15 PM 68.9 °F - 68.0 °F 97% 29.73 in 10.0 mi South 3.5 mph - N/A Rain Rain
8:35 PM 68.9 °F - 68.0 °F 97% 29.73 in 7.0 mi Calm Calm - N/A Rain Rain
8:55 PM 68.7 °F - 68.4 °F 99% 29.75 in 3.0 mi South 4.6 mph - N/A Rain Heavy Rain
9:15 PM 68.9 °F - 68.5 °F 99% 29.76 in 7.0 mi WSW 19.6 mph 25.3 mph N/A Rain Heavy Rain
9:35 PM 67.1 °F - 65.5 °F 95% 29.76 in 7.0 mi SW 8.1 mph 17.3 mph N/A Rain Rain
9:55 PM 66.4 °F - 65.5 °F 97% 29.76 in 7.0 mi SW 5.8 mph - N/A Rain Light Rain
10:15 PM 66.2 °F - 65.5 °F 98% 29.75 in 7.0 mi Calm Calm - N/A Rain Rain
10:35 PM 66.2 °F - 65.7 °F 98% 29.75 in 7.0 mi Calm Calm - N/A Rain Rain
10:55 PM 66.2 °F - 65.7 °F 98% 29.75 in 4.0 mi Calm Calm - N/A Rain Rain
11:15 PM 66.4 °F - 66.0 °F 99% 29.75 in 5.0 mi SSW 4.6 mph - N/A Rain Light Rain
11:35 PM 66.6 °F - 66.2 °F 99% 29.74 in 7.0 mi South 4.6 mph - N/A Rain Light Rain
11:55 PM 66.4 °F - 66.0 °F 99% 29.74 in 7.0 mi South 8.1 mph - N/A Rain Rain